EW5612 Weather Reports


Display with metric or nautical units.
time (UTC)temp
F
wind
direction
speed
MPH
gust
MPH
rain 1hr
in
rain 24hr
in
rain mn
in
humidity
%
barometer
mb
20260901050703 84 183 0.0 0.0 0.00 0.00 0.00 75 1014.0
20260901050203 84 183 0.0 0.0 0.00 0.00 0.00 75 1014.0
20260901045703 84 183 0.0 0.0 0.00 0.00 0.00 74 1014.0
20260901045203 84 185 0.0 0.0 0.00 0.00 0.00 74 1014.0
20260901044704 84 161 0.0 3.0 0.00 0.00 0.00 73 1014.0
20260901044203 84 113 0.0 0.0 0.00 0.00 0.00 72 1013.8
20260901043703 84 113 0.0 0.0 0.00 0.00 0.00 72 1013.7
20260901043204 85 113 0.0 0.0 0.00 0.00 0.00 71 1013.7
20260901042703 85 113 0.0 0.0 0.00 0.00 0.00 70 1013.7
20260901042204 85 113 0.0 0.0 0.00 0.00 0.00 70 1013.6
20260901041203 85 113 0.0 0.0 0.00 0.00 0.00 68 1013.7
20260901040704 85 113 0.0 0.0 0.00 0.00 0.00 68 1013.8
20260901035703 85 113 0.0 0.0 0.00 0.00 0.00 67 1013.7
20260901035204 85 113 0.0 0.0 0.00 0.00 0.00 66 1013.7
20260901034703 86 113 0.0 0.0 0.00 0.00 0.00 65 1013.6
20260901034204 86 113 0.0 0.0 0.00 0.00 0.00 65 1013.6
20260901033703 86 113 0.0 1.0 0.00 0.00 0.00 64 1013.7
20260901033203 86 113 0.0 0.0 0.00 0.00 0.00 64 1013.6
20260901032704 86 113 0.0 1.0 0.00 0.00 0.00 63 1013.6
20260901032204 87 112 0.0 1.0 0.00 0.00 0.00 63 1013.5
20260901031703 87 112 0.0 0.0 0.00 0.00 0.00 63 1013.5
20260901030203 87 112 0.0 0.0 0.00 0.00 0.00 61 1013.2
20260901025703 88 112 0.0 0.0 0.00 0.00 0.00 60 1013.2
20260901025203 88 112 0.0 0.0 0.00 0.00 0.00 60 1013.1
20260901024703 88 112 0.0 3.0 0.00 0.00 0.00 59 1013.0
20260901023704 88 112 0.0 0.0 0.00 0.00 0.00 58 1012.8
20260901023204 88 106 0.0 0.0 0.00 0.00 0.00 57 1012.7
20260901022204 89 106 0.0 0.0 0.00 0.00 0.00 55 1012.6
20260901021703 89 106 0.0 0.0 0.00 0.00 0.00 53 1012.5
20260901021203 89 106 0.0 0.0 0.00 0.00 0.00 52 1012.4
20260901020704 89 106 0.0 0.0 0.00 0.00 0.00 51 1012.3
20260901020204 89 106 0.0 0.0 0.00 0.00 0.00 50 1012.3
20260901015703 90 106 0.0 0.0 0.00 0.00 0.00 49 1012.1
20260901015203 90 106 1.0 3.0 0.00 0.00 0.00 48 1012.1
20260901014704 90 109 0.0 0.0 0.00 0.00 0.00 47 1012.1
20260901013704 90 109 0.0 1.0 0.00 0.00 0.00 45 1012.0
20260901013204 90 109 0.0 0.0 0.00 0.00 0.00 44 1011.9
20260901012703 91 109 0.0 0.0 0.00 0.00 0.00 44 1011.8
20260901012203 91 109 0.0 0.0 0.00 0.00 0.00 44 1011.7
20260901011703 92 109 0.0 0.0 0.00 0.00 0.00 43 1011.6
20260901011204 92 109 0.0 0.0 0.00 0.00 0.00 42 1011.6
20260901010703 93 109 0.0 0.0 0.00 0.00 0.00 41 1011.5
20260901005703 93 109 0.0 0.0 0.00 0.00 0.00 39 1011.4
20260901005203 94 109 0.0 0.0 0.00 0.00 0.00 39 1011.4
20260901004704 94 109 0.0 0.0 0.00 0.00 0.00 39 1011.5
20260901003704 95 110 0.0 1.0 0.00 0.00 0.00 40 1011.5
20260901003204 95 111 0.0 0.0 0.00 0.00 0.00 38 1011.4
20260901002703 95 112 0.0 0.0 0.00 0.00 0.00 38 1011.4
20260901002204 95 112 0.0 1.0 0.00 0.00 0.00 38 1011.4
20260901001704 96 116 0.0 0.0 0.00 0.00 0.00 38 1011.4
20260901001204 96 116 0.0 0.0 0.00 0.00 0.00 38 1011.2
20260901000204 96 127 0.0 0.0 0.00 0.00 0.00 37 1011.2
20260831235203 97 106 0.0 0.0 0.00 0.00 0.00 37 1011.2
20260831234704 97 104 1.0 2.0 0.00 0.00 0.00 37 1011.2
20260831233704 97 107 0.0 0.0 0.00 0.00 0.00 37 1011.1
20260831233203 97 109 0.0 3.0 0.00 0.00 0.00 37 1011.1
20260831232703 98 112 0.0 0.0 0.00 0.00 0.00 36 1011.2
20260831231704 98 95 0.0 0.0 0.00 0.00 0.00 35 1011.1
20260831231204 98 90 0.0 0.0 0.00 0.00 0.00 35 1011.2
20260831230204 98 85 0.0 0.0 0.00 0.00 0.00 35 1011.2
20260831225703 98 110 0.0 0.0 0.00 0.00 0.00 36 1011.2
20260831225203 98 54 0.0 0.0 0.00 0.00 0.00 34 1011.2
20260831224703 98 107 0.0 0.0 0.00 0.00 0.00 36 1011.3
20260831223704 98 56 0.0 0.0 0.00 0.00 0.00 36 1011.3
20260831223203 98 167 0.0 0.0 0.00 0.00 0.00 37 1011.4
20260831222203 98 118 0.0 0.0 0.00 0.00 0.00 37 1011.5
20260831221703 98 118 0.0 0.0 0.00 0.00 0.00 37 1011.5
20260831221204 98 105 0.0 0.0 0.00 0.00 0.00 37 1011.5
20260831220703 99 112 0.0 0.0 0.00 0.00 0.00 35 1011.5
20260831220203 100 176 0.0 0.0 0.00 0.00 0.00 35 1011.5
20260831215704 99 159 0.0 0.0 0.00 0.00 0.00 35 1011.6
20260831215203 99 156 0.0 0.0 0.00 0.00 0.00 37 1011.6
20260831214703 98 162 0.0 0.0 0.00 0.00 0.00 38 1011.6
20260831213704 98 106 0.0 0.0 0.00 0.00 0.00 38 1011.9
20260831213203 97 105 0.0 0.0 0.00 0.00 0.00 40 1012.0
20260831212704 97 104 0.0 0.0 0.00 0.00 0.00 39 1012.0
20260831212203 97 82 0.0 0.0 0.00 0.00 0.00 41 1012.0
20260831211204 97 191 0.0 0.0 0.00 0.00 0.00 41 1012.2
20260831210703 97 191 0.0 0.0 0.00 0.00 0.00 43 1012.2
20260831210204 97 191 0.0 0.0 0.00 0.00 0.00 41 1012.3
20260831205703 97 191 0.0 0.0 0.00 0.00 0.00 41 1012.3
20260831205203 98 117 0.0 0.0 0.00 0.00 0.00 40 1012.4
20260831204703 98 103 0.0 0.0 0.00 0.00 0.00 41 1012.6
20260831204204 98 110 0.0 0.0 0.00 0.00 0.00 41 1012.7
20260831203703 98 110 0.0 0.0 0.00 0.00 0.00 40 1012.8
20260831203204 98 111 0.0 0.0 0.00 0.00 0.00 39 1012.9
20260831202703 98 178 0.0 0.0 0.00 0.00 0.00 41 1012.9
20260831202204 97 137 0.0 0.0 0.00 0.00 0.00 40 1012.9
20260831201203 97 141 0.0 0.0 0.00 0.00 0.00 41 1013.2
20260831200704 97 141 0.0 0.0 0.00 0.00 0.00 39 1013.3
20260831200204 97 115 0.0 0.0 0.00 0.00 0.00 42 1013.3
20260831195703 97 114 0.0 0.0 0.00 0.00 0.00 41 1013.4
20260831195203 98 114 0.0 0.0 0.00 0.00 0.00 40 1013.6
20260831194703 99 177 0.0 0.0 0.00 0.00 0.00 40 1013.5
20260831194203 99 181 0.0 0.0 0.00 0.00 0.00 41 1013.5
20260831193704 98 101 0.0 0.0 0.00 0.00 0.00 41 1013.7
20260831193204 98 44 0.0 0.0 0.00 0.00 0.00 43 1013.8
20260831192703 98 110 0.0 0.0 0.00 0.00 0.00 42 1013.8
20260831192204 97 106 0.0 0.0 0.00 0.00 0.00 44 1014.0
20260831191704 97 116 0.0 0.0 0.00 0.00 0.00 45 1014.0
20260831191203 96 132 0.0 0.0 0.00 0.00 0.00 45 1014.0
20260831190703 96 199 0.0 0.0 0.00 0.00 0.00 46 1014.0
20260831190203 96 195 0.0 0.0 0.00 0.00 0.00 45 1014.2
20260831185203 96 197 0.0 0.0 0.00 0.00 0.00 46 1014.2
20260831184704 96 204 0.0 0.0 0.00 0.00 0.00 46 1014.3
20260831184204 96 268 0.0 0.0 0.00 0.00 0.00 46 1014.4
20260831183203 96 108 0.0 0.0 0.00 0.00 0.00 47 1014.6
20260831182703 95 350 0.0 0.0 0.00 0.00 0.00 50 1014.6
20260831182204 95 200 0.0 0.0 0.00 0.00 0.00 49 1014.7
20260831181204 95 176 0.0 0.0 0.00 0.00 0.00 48 1014.7
20260831180704 96 168 0.0 1.0 0.00 0.00 0.00 48 1014.7
20260831175704 95 176 0.0 0.0 0.00 0.00 0.00 49 1014.9
20260831174203 94 189 0.0 0.0 0.00 0.00 0.00 55 1015.1
20260831173704 94 179 0.0 0.0 0.00 0.00 0.00 53 1015.3
20260831173203 93 183 0.0 0.0 0.00 0.00 0.00 54 1015.2
20260831172704 93 125 0.0 0.0 0.00 0.00 0.00 56 1015.3
20260831172204 93 93 0.0 0.0 0.00 0.00 0.00 56 1015.3
20260831171203 91 182 0.0 0.0 0.00 0.00 0.00 58 1015.4
20260831170203 91 272 0.0 0.0 0.00 0.00 0.00 60 1015.6
20260831165703 91 107 0.0 0.0 0.00 0.00 0.00 60 1015.6
20260831164704 89 197 0.0 0.0 0.00 0.00 0.00 63 1015.7
20260831163703 89 183 0.0 0.0 0.00 0.00 0.00 66 1015.7
20260831163204 89 253 0.0 0.0 0.00 0.00 0.00 65 1015.8
20260831162204 88 185 0.0 0.0 0.00 0.00 0.00 67 1015.8
20260831161703 88 185 0.0 0.0 0.00 0.00 0.00 67 1015.8
20260831161204 87 185 0.0 0.0 0.00 0.00 0.00 69 1015.8
20260831160704 87 185 0.0 0.0 0.00 0.00 0.00 70 1015.8
20260831160203 87 184 0.0 0.0 0.00 0.00 0.00 71 1015.8
20260831155704 87 184 0.0 0.0 0.00 0.00 0.00 71 1015.8
20260831155204 86 189 0.0 0.0 0.00 0.00 0.00 71 1015.8
20260831154704 86 137 0.0 3.0 0.00 0.00 0.00 73 1015.8
20260831154203 86 177 0.0 0.0 0.00 0.00 0.00 75 1015.6
20260831153704 85 199 0.0 0.0 0.00 0.00 0.00 76 1015.6
20260831153204 85 178 0.0 0.0 0.00 0.00 0.00 77 1015.6
20260831152203 84 224 0.0 0.0 0.00 0.00 0.00 80 1015.6
20260831151204 83 181 0.0 0.0 0.00 0.00 0.00 84 1015.6
20260831150703 82 188 0.0 0.0 0.00 0.00 0.00 85 1015.7
20260831150203 82 162 0.0 0.0 0.00 0.00 0.00 86 1015.7
20260831144703 81 198 0.0 0.0 0.00 0.00 0.00 90 1015.5
20260831144204 80 191 0.0 0.0 0.00 0.00 0.00 91 1015.5
20260831143204 80 191 0.0 3.0 0.00 0.00 0.00 92 1015.5
20260831142703 79 190 0.0 0.0 0.00 0.00 0.00 93 1015.4
20260831142204 79 190 0.0 0.0 0.00 0.00 0.00 94 1015.5
20260831141704 79 190 0.0 0.0 0.00 0.00 0.00 94 1015.5